Location: Bathurst
(33.4193°S, 149.5775°E)
Time: 21:30:16
(UTC+11:00)

ISS - Pass Details

Date: 29 January 2021
Orbit: 417 x 422 km, 51.6° (Epoch: 28 February)

Event Time Altitude Azimuth Distance (km) Brightness Sun altitude
Exits shadow 03:56:07 27° 168° (SSE) 858 -1.7 -25.8°
Drops below altitude 10° 03:58:01 10° 147° (SSE) 1,522 0.1 -25.5°
Sets 04:00:13 0° 140° (SE) 2,392 1.5 -25.2°
